CAPE
448 1225 1290 1324 1323 1249 1179 1053 925 754 539 439 223 32 13 0 8 2 37 10 32 37 8 4 3 1 0 0 0 0 0 0 0 0 0 0 1 0 2 6 5 4 6
812 1388 1275 1264 1242 1267 1179 1057 837 617 549 473 214 45 5 0 0 1 44 1 1 0 0 1 1 0 0 0 0 0 0 0 0 0 0 0 0 0 1 0 0 1 6
1051 1287 1306 1279 1233 1243 1091 967 592 607 546 258 49 0 0 0 0 0 33 4 1 0 0 0 0 0 0 0 0 0 0 0 0 0 0 0 0 0 0 0 0 0 0
1046 1315 1324 1346 1318 1096 932 858 482 150 84 0 0 0 0 0 0 0 82 9 0 0 0 0 1 0 0 0 0 0 0 0 0 0 0 0 0 5 0 2 7 0 0
1088 1201 1365 1334 1256 991 929 463 52 1 6 0 0 0 0 0 0 0 156 0 0 0 0 0 0 0 0 0 0 0 0 0 0 0 0 6 30 59 4 16 47 93 131
1012 1169 1326 1313 1143 941 668 234 24 0 0 0 0 34 152 0 0 238 110 0 0 0 0 0 0 0 0 0 0 0 0 0 0 0 0 53 46 84 79 100 140 109 128
838 824 1143 1046 1034 880 504 78 34 8 0 0 0 312 332 167 250 231 22 0 0 0 0 0 0 0 0 0 0 0 0 0 0 0 0 0 6 8 3 3 4 11 32
680 929 1045 888 879 781 527 160 49 21 0 0 17 208 96 116 136 69 0 0 0 0 0 0 0 0 0 0 0 0 0 0 0 0 0 0 0 0 3 3 0 1 2
833 942 927 738 722 542 512 226 57 37 10 0 16 81 95 112 102 84 40 3 0 0 0 0 0 0 0 0 0 0 0 0 0 0 0 0 0 0 3 4 2 2 1
677 756 664 670 587 456 492 230 85 48 18 0 0 68 58 36 59 74 42 40 28 0 0 1 15 0 0 0 0 0 0 0 0 0 0 0 0 0 1 0 1 1 0
742 728 546 588 610 281 162 142 107 50 27 8 0 9 52 31 30 32 19 16 15 1 1 24 36 0 0 0 0 0 0 0 0 0 0 6 7 1 1 1 0 0 0
711 528 399 493 543 285 191 118 79 63 30 2 0 0 0 8 11 5 6 12 17 20 20 33 34 0 0 0 0 0 0 0 0 0 0 39 32 4 1 1 0 0 0
555 363 359 456 386 263 203 92 55 37 2 0 0 0 0 0 0 0 0 3 19 27 26 59 49 6 0 0 0 0 0 0 0 0 3 39 19 24 1 1 0 0 0
440 288 175 145 134 171 127 105 55 24 0 0 0 0 0 0 0 0 0 0 0 6 10 22 24 8 0 0 0 0 0 0 0 0 4 42 45 37 0 1 1 0 0
465 283 164 88 64 55 67 68 40 30 20 0 0 0 0 0 0 0 0 0 0 0 0 2 12 5 0 0 0 0 0 0 0 0 1 24 38 35 12 1 1 0 0
411 360 256 160 95 52 56 48 23 37 40 34 0 0 0 0 0 0 0 0 0 0 0 0 0 0 0 0 0 0 0 0 0 0 0 0 5 10 9 0 0 0 0
385 429 400 293 201 107 62 69 43 41 22 1 0 0 0 0 0 0 0 0 0 0 0 0 0 0 0 0 0 0 0 0 0 0 0 0 0 0 0 0 0 0 0
313 427 341 387 336 154 69 39 29 24 0 0 0 0 0 0 0 0 0 0 0 0 0 0 0 0 0 0 0 0 0 0 0 0 0 0 0 0 0 0 0 0 0
106 274 389 265 248 287 155 0 0 0 0 0 0 0 0 0 0 0 0 0 0 0 0 0 0 0 0 0 0 0 0 0 0 0 0 0 0 0 0 0 0 0 0
0 0 13 119 172 273 147 114 102 81 0 0 0 0 0 0 0 0 0 0 0 0 0 0 0 0 0 0 0 0 0 0 0 0 0 0 0 0 0 0 0 0 0
0 0 0 0 0 0 139 268 249 182 232 216 109 100 145 27 0 0 0 0 0 0 0 0 0 0 0 0 0 0 0 0 0 0 0 0 0 0 0 0 0 0 0
0 0 0 0 0 0 0 0 0 83 110 117 115 113 67 62 100 99 17 11 0 0 0 0 0 0 0 0 0 0 0 0 0 0 0 0 0 0 0 0 0 0 0
0 0 0 0 0 0 0 0 0 0 0 0 0 0 0 14 28 42 67 65 15 0 0 0 0 0 3 0 0 0 1 0 0 0 0 0 0 0 0 0 0 0 0
0 0 0 0 0 0 0 0 0 0 0 0 0 0 0 0 0 0 0 0 0 0 0 0 0 0 0 0 0 0 0 0 2 0 0 0 0 0 0 0 0 0 0
0 0 0 0 0 0 0 0 0 0 0 0 0 0 0 0 0 0 0 0 0 0 8 13 0 0 0 9 0 0 0 0 0 0 0 0 0 0 0 0 0 0 0
0 0 0 0 0 0 0 0 0 0 0 0 0 0 0 0 0 0 0 0 0 0 0 0 26 0 0 2 9 0 0 1 1 0 0 0 0 0 0 0 0 0 0
CIN
-245 -89 -67 -49 -35 -27 -23 -19 -22 -22 -35 -27 -41 -154 -159 0 -20 0 0 0 0 0 0 -1 -1 0 0 0 0 0 0 0 0 0 0 0 0 0 0 -11 -7 -3 0
-209 -85 -75 -66 -51 -37 -38 -38 -39 -48 -50 -53 -80 -154 0 0 0 0 0 0 0 0 0 0 0 0 0 0 0 0 0 0 0 0 0 0 0 0 0 0 0 0 0
-150 -100 -78 -73 -59 -47 -48 -60 -83 -73 -56 -84 -133 0 0 0 0 0 0 0 0 0 0 0 0 0 0 0 0 0 0 0 0 0 0 0 0 0 0 0 0 0 0
-151 -99 -78 -66 -58 -62 -71 -75 -117 -188 -192 0 0 0 0 0 0 0 -92 0 0 0 0 0 0 0 0 0 0 0 0 0 0 0 0 0 0 0 0 0 0 0 0
-131 -110 -71 -61 -64 -80 -81 -131 -215 -9 -59 0 0 0 0 0 0 0 -44 0 0 0 0 0 0 0 0 0 0 0 0 0 0 0 0 -6 -36 -41 0 0 -34 -37 -29
-143 -99 -68 -59 -74 -89 -116 -178 -239 0 0 0 0 -121 -108 0 0 -29 -64 0 0 0 0 0 0 0 0 0 0 0 0 0 0 0 0 -51 -55 -25 -25 -16 -16 -28 -28
-166 -134 -83 -83 -83 -94 -133 -213 -246 -308 0 0 0 -114 -91 -98 -59 -51 -50 0 0 0 0 0 0 0 0 0 0 0 0 0 0 0 0 0 -5 -1 0 0 0 -1 -63
-182 -112 -81 -103 -95 -94 -122 -190 -236 -286 0 0 -178 -150 -161 -137 -117 -112 0 0 0 0 0 0 0 0 0 0 0 0 0 0 0 0 0 0 0 0 0 0 0 0 -1
-126 -96 -90 -114 -101 -124 -119 -168 -222 -261 -325 0 -164 -150 -168 -158 -151 -150 -181 -73 0 0 0 0 0 0 0 0 0 0 0 0 0 0 0 0 0 0 0 0 0 0 0
-123 -112 -124 -113 -127 -132 -132 -168 -208 -251 -307 0 0 -181 -183 -220 -196 -189 -225 -207 -207 0 0 -10 -186 0 0 0 0 0 0 0 0 0 0 0 0 0 0 0 0 0 0
-82 -100 -139 -120 -118 -156 -176 -181 -199 -227 -294 -367 0 -349 -240 -270 -275 -249 -269 -264 -253 -89 -91 -232 -200 0 0 0 0 0 0 0 0 0 0 -34 -38 0 0 0 0 0 0
-88 -119 -152 -134 -120 -161 -171 -189 -200 -216 -287 -89 0 0 0 -401 -381 -372 -355 -299 -263 -267 -265 -235 -229 0 0 0 0 0 0 0 0 0 0 -117 -108 0 0 0 0 0 0
-113 -154 -157 -134 -140 -155 -152 -194 -200 -236 -37 0 0 0 0 0 0 0 0 -240 -324 -280 -294 -220 -243 -379 0 0 0 0 0 0 0 0 -100 -123 -122 -110 0 0 0 0 0
-125 -147 -182 -197 -185 -165 -166 -170 -201 -201 0 0 0 0 0 0 0 0 0 0 0 -346 -381 -311 -303 -375 0 0 0 0 0 0 0 0 -132 -158 -123 -118 0 0 0 0 0
-110 -147 -173 -206 -209 -219 -200 -190 -184 -182 -192 0 0 0 0 0 0 0 0 0 0 0 0 -137 -328 -357 0 0 0 0 0 0 0 0 -283 -213 -171 -154 -175 0 0 0 0
-128 -125 -137 -170 -193 -210 -204 -193 -198 -192 -187 -205 0 0 0 0 0 0 0 0 0 0 0 0 0 0 0 0 0 0 0 0 0 0 0 0 -207 -193 -202 0 0 0 0
-120 -105 -120 -132 -161 -180 -183 -180 -195 -184 -219 -10 0 0 0 0 0 0 0 0 0 0 0 0 0 0 0 0 0 0 0 0 0 0 0 0 0 0 0 0 0 0 0
-63 -70 -109 -113 -129 -156 -172 -168 -186 -156 0 0 0 0 0 0 0 0 0 0 0 0 0 0 0 0 0 0 0 0 0 0 0 0 0 0 0 0 0 0 0 0 0
-104 -71 -55 -77 -78 -87 -119 0 0 0 0 0 0 0 0 0 0 0 0 0 0 0 0 0 0 0 0 0 0 0 0 0 0 0 0 0 0 0 0 0 0 0 0
0 0 -35 -124 -91 -73 -81 -86 -89 -64 0 0 0 0 0 0 0 0 0 0 0 0 0 0 0 0 0 0 0 0 0 0 0 0 0 0 0 0 0 0 0 0 0
0 0 0 0 0 0 -79 -57 -56 -61 -56 -63 -80 -74 -61 -46 0 0 0 0 0 0 0 0 0 0 0 0 0 0 0 0 0 0 0 0 0 0 0 0 0 0 0
0 0 0 0 0 0 0 0 0 -53 -70 -80 -91 -84 -87 -65 -50 -47 -18 -25 0 0 0 0 0 0 0 0 0 0 0 0 0 0 0 0 0 0 0 0 0 0 0
0 0 0 0 0 0 0 0 0 0 0 0 0 0 0 -48 -104 -113 -85 -77 -64 0 0 0 0 0 -20 0 0 0 -7 0 0 0 0 0 0 0 0 0 0 0 0
0 0 0 0 0 0 0 0 0 0 0 0 0 0 0 0 0 0 0 0 0 0 0 0 0 0 0 0 0 0 0 0 -16 0 0 0 0 0 0 0 0 0 0
0 0 0 0 0 0 0 0 0 0 0 0 0 0 0 0 0 0 0 0 0 0 -15 -42 0 -2 0 -25 0 0 0 0 0 0 0 0 0 0 0 0 0 0 0
0 0 0 0 0 0 0 0 0 0 0 0 0 0 0 0 0 0 0 0 0 0 0 0 -43 0 0 -8 -30 0 -4 -8 -17 0 0 0 0 0 0 0 0 0 0
Wind_Speed
2 11 13 14 15 16 16 16 17 18 19 19 19 19 20 20 20 20 21 22 21 20 20 19 17 17 17 17 17 18 18 19 20 20 20 21 20 20 19 19 20 20 20
11 10 13 13 14 15 17 18 19 20 20 20 20 20 20 20 20 20 20 21 22 21 20 19 18 18 17 17 17 18 19 19 20 20 20 20 20 20 19 19 19 20 20
9 10 11 12 13 15 16 19 20 20 20 21 21 20 20 19 19 19 19 20 21 21 21 20 19 18 18 17 17 18 18 19 19 20 20 20 20 19 19 19 19 19 20
10 9 9 12 13 14 16 16 19 20 20 19 19 19 19 19 19 19 19 19 20 21 21 20 19 18 18 18 18 18 18 18 18 19 19 19 19 18 19 19 19 19 19
6 7 9 10 11 13 15 16 17 18 18 19 18 19 19 19 19 19 19 19 20 21 21 20 20 20 19 18 18 19 19 18 17 17 19 20 21 18 19 19 20 20 23
5 7 9 9 11 12 13 14 15 16 17 18 19 19 19 19 19 19 19 19 19 20 20 20 20 20 19 19 19 19 19 19 19 19 19 19 21 20 20 20 20 21 22
6 7 10 9 10 11 12 12 13 15 16 16 17 19 19 18 18 18 18 18 18 19 19 19 19 19 18 18 19 19 19 19 18 18 18 18 19 19 19 19 19 20 19
6 4 7 8 9 10 11 11 11 12 14 14 15 17 17 18 17 17 17 16 17 17 18 18 18 17 17 17 17 18 18 17 17 17 17 18 18 18 18 18 18 18 17
3 3 3 5 7 9 10 9 9 10 12 12 12 14 15 16 16 16 15 15 15 16 16 16 16 16 16 16 16 17 17 16 16 16 17 17 17 18 18 19 19 19 18
2 2 2 3 5 6 7 8 7 8 10 11 10 11 12 12 12 13 13 13 13 14 14 14 14 15 15 15 15 15 17 14 14 15 15 16 17 17 18 18 18 18 18
5 3 2 3 2 4 4 4 5 6 7 8 9 9 9 9 9 10 10 10 11 11 12 12 13 13 14 14 15 15 16 14 14 13 13 14 15 16 17 17 18 18 18
4 4 1 2 2 1 2 2 3 4 5 6 7 7 7 7 7 8 8 8 9 9 9 10 10 11 13 13 13 14 14 15 12 12 12 12 13 15 16 16 16 16 16
5 4 2 1 1 1 2 2 3 4 4 5 5 5 5 6 6 7 8 7 7 8 9 8 8 10 11 12 12 12 12 14 14 11 11 10 12 13 14 15 15 16 15
8 5 5 4 3 2 4 2 3 4 5 4 4 4 4 5 5 5 6 5 5 6 6 6 7 8 10 11 11 12 12 14 14 10 10 9 11 13 14 14 15 15 15
10 8 8 7 6 5 4 4 5 4 4 4 4 4 3 4 4 4 4 4 4 6 6 6 7 7 9 10 11 12 13 13 14 12 12 10 11 12 13 14 14 14 14
13 12 10 7 6 6 5 6 5 5 4 5 5 3 2 3 3 3 4 4 5 5 6 7 7 8 10 12 13 13 14 14 15 14 13 12 11 13 14 14 13 13 13
17 14 12 12 11 9 7 7 7 6 6 6 4 4 3 3 4 4 5 6 6 7 8 9 10 12 13 14 14 15 15 15 17 16 15 13 13 13 13 14 14 14 14
19 18 17 16 14 14 12 13 12 10 9 9 9 8 7 7 6 7 8 9 9 9 10 11 12 14 16 16 17 17 17 17 17 16 16 15 15 15 14 14 16 16 15
24 23 21 19 18 17 17 16 14 13 13 13 12 11 10 9 9 9 10 11 11 12 13 14 17 17 18 19 19 20 19 18 18 19 18 17 16 17 17 16 16 17 17
22 22 24 24 24 23 21 21 21 20 18 16 15 15 14 13 13 13 15 16 17 18 18 19 19 20 21 22 24 24 24 22 21 20 21 21 20 19 19 18 18 18 17
20 20 20 20 22 23 24 25 26 25 23 22 20 21 21 20 20 18 18 20 20 22 22 22 23 23 24 24 28 30 28 25 23 23 24 25 24 23 22 20 19 20 20
21 20 20 21 23 23 24 25 26 26 27 27 25 25 23 22 22 22 23 23 23 24 24 23 23 27 27 24 28 31 35 32 27 24 24 24 24 25 24 23 22 22 22
20 21 22 23 24 24 25 25 25 25 25 26 25 25 24 25 26 27 27 26 26 26 26 26 24 24 27 26 22 26 32 33 33 28 26 24 25 26 27 26 26 26 25
22 21 21 22 23 25 26 27 28 29 29 27 27 28 29 29 29 29 29 27 27 27 27 25 23 21 22 25 25 22 25 29 35 39 29 29 27 28 29 29 29 29 28
22 23 23 23 24 25 25 25 26 27 27 28 28 29 30 30 30 31 31 30 28 26 24 23 22 21 20 23 24 25 24 24 25 30 40 33 31 30 29 29 30 32 33
22 23 24 25 25 24 23 23 23 24 24 24 25 26 26 26 26 28 29 29 29 28 26 25 24 22 21 22 23 23 23 25 27 27 31 32 32 30 31 31 32 33 33
Wind_Direction
72 91 88 82 76 71 69 64 61 65 63 59 53 51 51 51 52 56 57 55 52 48 46 44 41 38 37 38 39 37 34 31 28 27 29 25 37 30 33 29 26 26 27
102 95 94 85 78 73 69 69 70 73 75 71 64 57 55 56 60 59 60 54 53 50 45 44 43 42 40 41 41 38 33 29 27 27 30 29 30 32 34 31 29 29 29
105 98 92 89 83 77 70 74 75 72 69 67 56 53 54 57 59 60 66 62 54 49 46 46 46 45 43 42 41 36 33 32 29 30 31 30 32 31 31 28 28 26 25
106 100 93 93 87 78 76 66 67 62 58 51 46 47 53 56 60 67 68 62 55 47 45 46 47 50 49 46 41 34 31 34 38 34 26 26 26 34 33 30 27 24 20
106 103 100 95 87 83 78 73 66 55 47 46 47 54 55 63 66 70 73 65 56 50 51 52 53 55 55 50 42 35 30 34 43 42 31 30 25 50 32 27 20 25 8
116 107 105 98 91 88 79 74 62 53 47 47 53 48 64 64 69 70 71 65 58 55 55 55 54 55 54 51 46 36 39 43 44 46 47 37 32 34 25 23 20 13 8
128 119 116 106 98 93 83 72 62 54 52 54 55 48 55 67 69 67 66 64 60 57 57 57 55 51 50 46 41 34 41 44 46 43 38 29 23 14 13 12 9 4 6
140 138 120 109 107 101 93 77 63 51 50 59 66 53 51 58 57 62 65 61 57 57 59 58 52 47 46 42 38 31 33 41 38 33 27 21 18 17 13 13 12 10 9
162 152 132 112 112 111 103 85 71 53 48 51 61 56 60 55 55 62 59 55 53 54 53 50 48 47 42 37 34 27 25 35 36 31 29 25 23 18 13 9 6 5 4
208 193 162 140 122 108 109 99 77 62 53 52 52 52 59 61 63 59 50 46 46 45 45 45 45 41 36 29 27 22 15 31 29 26 24 25 22 16 14 10 7 5 2
259 259 233 161 148 116 93 93 76 75 63 51 50 52 56 50 53 49 50 50 45 42 42 42 37 32 26 21 16 14 15 23 24 24 25 27 20 16 15 11 8 4 3
255 271 244 186 165 124 9 37 48 48 44 33 35 44 44 43 38 32 33 34 35 38 35 34 34 27 19 15 13 9 12 9 17 18 20 25 20 15 13 13 11 9 7
257 278 275 168 199 177 326 356 1 11 16 14 27 37 34 22 14 11 7 11 16 16 13 19 20 15 9 4 1 0 2 2 4 8 11 17 16 13 11 9 6 3 2
263 264 275 276 278 283 307 322 342 348 352 359 12 15 14 6 6 6 7 15 11 8 10 9 6 2 356 353 352 347 346 345 349 356 357 0 359 359 359 2 0 358 355
264 269 272 275 280 285 298 310 319 330 342 353 348 350 352 352 349 355 5 4 3 356 353 349 345 342 341 340 336 335 333 334 337 337 337 337 340 344 349 351 353 353 353
266 270 272 269 272 280 286 298 304 317 332 338 337 345 340 337 336 336 334 332 335 341 341 337 333 329 328 329 326 323 323 323 326 326 325 324 323 328 332 338 342 344 345
268 271 274 276 275 274 275 282 294 297 314 319 322 325 313 309 310 312 316 319 317 322 326 329 328 327 325 324 322 321 319 318 320 319 318 316 314 313 316 323 326 328 330
272 274 275 279 282 283 279 285 289 292 298 306 309 310 306 303 295 299 304 307 310 310 314 317 318 318 317 317 316 314 314 313 313 313 314 311 308 307 306 309 313 315 316
271 274 277 279 282 283 286 289 289 289 292 298 301 300 298 292 294 292 297 301 305 305 305 308 311 311 313 313 311 311 309 305 304 309 308 308 305 303 302 302 303 305 306
276 277 278 277 280 284 286 287 291 292 294 297 300 301 301 296 294 292 297 303 307 307 307 306 304 308 307 309 311 309 308 305 303 300 302 306 304 299 297 295 297 298 295
279 281 284 286 287 287 285 285 288 290 291 294 297 298 301 303 303 299 297 299 303 303 304 305 305 304 306 310 311 311 309 305 301 298 300 301 301 300 297 293 291 292 292
276 282 285 288 290 292 292 291 291 293 293 295 297 300 301 300 301 300 301 301 303 305 305 303 302 305 307 308 309 312 311 312 309 300 298 296 296 300 298 296 292 290 289
278 283 288 290 292 293 294 294 295 297 297 298 301 303 305 305 303 302 301 302 303 305 305 307 304 301 303 307 303 306 312 312 317 318 311 304 300 298 297 298 296 292 289
279 287 291 294 296 297 296 295 293 292 292 297 299 301 302 305 306 306 306 305 304 305 306 308 310 307 307 308 312 305 304 309 311 313 317 316 313 308 304 299 297 294 290
279 285 291 294 297 299 300 300 298 296 296 298 300 301 302 304 306 307 308 308 307 306 307 309 310 311 311 312 311 315 314 313 313 312 311 316 316 315 312 307 303 297 293
283 286 289 292 296 301 303 304 304 303 304 304 305 306 311 312 313 314 315 315 314 310 308 308 310 311 313 314 315 315 315 317 319 317 314 315 314 316 316 312 307 305 301